Weather History for Eastover, SC

Change the Weather History Date:

Wednesday, February 1, 2012

  Actual Average Record
Temperature  
Mean Temperature 54 °F -  
Max Temperature 73 °F 54 °F 78 °F (2002)
Min Temperature 36 °F 35 °F 24 °F (1998)
Degree Days  
Heating Degree Days 10    
Growing Degree Days 4 (Base 50)    
Moisture  
Dew Point 45 °F    
Average Humidity 68    
Maximum Humidity 93    
Minimum Humidity 38    
Precipitation  
Precipitation 0.00 in - - ()
Sea Level Pressure  
Sea Level Pressure 30.21 in    
Wind  
Wind Speed 3 mph (SSW)    
Max Wind Speed 9 mph    
Max Gust Speed -    
Visibility 10 miles    
Events Rain    
Averages and records for this station are not official NWS values.
T = Trace of Precipitation, MM = Missing Value Source: NWS Daily Summary

Daily Weather History Graph

Daily Weather History Graph

Search for Another Location

Airport:

Trip Planner

Search our weather history database for the weather conditions in past years. The results will help you decide how hot, cold, wet, or windy it might be!

Date:

Astronomy

Feb. 01, 2012 Rise Set
Actual Time 7:20 AM EST 5:53 PM EST
Civil Twilight 6:54 AM EST 6:19 PM EST
Nautical Twilight 6:24 AM EST 6:49 PM EST
Astronomical Twilight 5:54 AM EST 7:19 PM EST
Moon 12:24 PM EST (2/1) 2:01 AM EST (2/1)
Length of Visible Light 11h 25m
Length of Day
10h 33m
Waxing Gibbous, 64% of the Moon is Illuminated
Feb 1
Waxing Gibbous
Feb 7
Full
Feb 14
Last Quarter
Feb 21
New
Feb 29
First Quarter

Hourly Weather History & Observations

Time (EST) Temp. Windchill Dew Point Humidity Pressure Visibility Wind Dir Wind Speed Gust Speed Precip Events Conditions
12:55 AM 41.0 °F - 33.1 °F 73% 30.32 in 10.0 mi Calm Calm - N/A   Overcast
1:55 AM 42.3 °F - 34.2 °F 73% 30.32 in 10.0 mi Calm Calm - N/A   Partly Cloudy
2:55 AM 41.5 °F - 34.9 °F 77% 30.31 in 10.0 mi Calm Calm - N/A   Mostly Cloudy
3:55 AM 39.7 °F - 34.9 °F 83% 30.30 in 10.0 mi Calm Calm - N/A   Clear
4:55 AM 36.9 °F - 34.0 °F 89% 30.29 in 10.0 mi Calm Calm - N/A   Clear
5:55 AM 37.0 °F - 35.2 °F 93% 30.30 in 10.0 mi Calm Calm - N/A   Clear
6:55 AM 38.5 °F 35.0 °F 36.7 °F 93% 30.30 in 10.0 mi WSW 4.6 mph - N/A   Partly Cloudy
7:55 AM 41.5 °F - 38.3 °F 88% 30.31 in 10.0 mi Calm Calm - N/A   Scattered Clouds
8:55 AM 52.3 °F - 45.7 °F 78% 30.31 in 10.0 mi SSW 5.8 mph - N/A   Partly Cloudy
9:55 AM 58.1 °F - 47.5 °F 68% 30.31 in 10.0 mi WSW 4.6 mph - N/A   Partly Cloudy
10:55 AM 63.1 °F - 49.3 °F 61% 30.29 in 10.0 mi Variable 3.5 mph - N/A   Partly Cloudy
11:55 AM 67.5 °F - 49.8 °F 53% 30.25 in 10.0 mi SW 9.2 mph - N/A   Mostly Cloudy
12:55 PM 70.5 °F - 49.1 °F 47% 30.20 in 10.0 mi WSW 8.1 mph - N/A   Partly Cloudy
2:55 PM 73.0 °F - 47.1 °F 40% 30.15 in 10.0 mi South 8.1 mph - N/A   Scattered Clouds
3:55 PM 73.4 °F - 46.6 °F 38% 30.14 in 10.0 mi South 8.1 mph - N/A   Mostly Cloudy
5:55 PM 68.2 °F - 44.6 °F 43% 30.15 in 10.0 mi SW 3.5 mph - N/A   Overcast
6:55 PM 65.7 °F - 45.7 °F 48% 30.15 in 10.0 mi Calm Calm - N/A   Overcast
7:55 PM 61.3 °F - 46.6 °F 58% 30.13 in 10.0 mi SSE 3.5 mph - N/A   Overcast
8:28 PM 62.6 °F - 46.4 °F 55% 30.13 in 10.0 mi SE 6.9 mph - N/A Rain Light Rain
8:39 PM 60.8 °F - 48.2 °F 63% 30.13 in 10.0 mi SSE 9.2 mph - N/A   Overcast
8:55 PM 62.6 °F - 49.8 °F 63% 30.12 in 10.0 mi South 6.9 mph - 0.00 in   Overcast
9:02 PM 62.6 °F - 50.0 °F 63% 30.12 in 10.0 mi South 6.9 mph - N/A Rain Light Rain
9:44 PM 60.8 °F - 51.8 °F 72% 30.13 in 10.0 mi South 3.5 mph - N/A   Overcast
9:55 PM 60.6 °F - 52.9 °F 76% 30.13 in 10.0 mi Calm Calm - 0.00 in   Overcast
10:55 PM 58.5 °F - 53.6 °F 84% 30.12 in 10.0 mi Calm Calm - N/A   Overcast
11:55 PM 58.5 °F - 53.4 °F 83% 30.11 in 10.0 mi South 4.6 mph - N/A   Overcast